Regional Weather Roundup
Issued by NWS

Home | Current Version | Previous Version | Text Only | Print | Product List | Glossary On
Versions: 1 2 3 4 5 6 7 8 9 10 11 12 13 14 15 16 17 18 19 20 21 22 23 24 25 26 27 28 29 30 31 32 33 34 35 36 37 38 39 40 41 42 43 44 45 46 47 48 49 50
000
ASUS45 KCYS 171210
RWRWY

WYOMING REGIONAL WEATHER ROUNDUP
NATIONAL WEATHER SERVICE CHEYENNE WY
500 AM MST SUN DEC 17 2017

NOTE:  "FAIR" INDICATES FEW OR NO CLOUDS BELOW 12,000 FEET
WITH NO SIGNIFICANT WEATHER AND/OR OBSTRUCTIONS TO VISIBILITY.

WYZ001-171300-
YELLOWSTONE NATIONAL PARK

CITY           SKY/WX    TMP DP  RH WIND       PRES   REMARKS
LK YELLOWSTONE   N/A     -8 -13  78 CALM      30.00S
6HR MIN TEMP:  -8; 6HR MAX TEMP:   3;

W YELLOWSTONE  NOT AVBL

$$
WYZ002>013-054>058-071-098>099-171300-
NORTHERN WYOMING

CITY           SKY/WX    TMP DP  RH WIND       PRES   REMARKS
JACKSON        FAIR       1  -2  87 NE3       30.05S
CODY           FAIR      14  11  87 S13       29.93F WCI   0
GREYBULL       CLOUDY    24  22  91 CALM      30.00F
6HR MIN TEMP:  24; 6HR MAX TEMP:  27; 6HR PCP:  0.01;

WORLAND        CLOUDY    26  24  92 SE6       29.99F WCI  19
6HR MIN TEMP:  25; 6HR MAX TEMP:  26; 6HR PCP: TRACE;

SHERIDAN       FOG       21  19  92 CALM      29.96F VSB 1/4
6HR MIN TEMP:  18; 6HR MAX TEMP:  27;

BUFFALO        CLOUDY    25  20  81 SE7       29.92F WCI  17
6HR MIN TEMP:  21; 6HR MAX TEMP:  25; 6HR PCP: TRACE;

GILLETTE       FAIR      10   8  92 S9        29.94F WCI  -3
6HR MIN TEMP:  10; 6HR MAX TEMP:  26; 6HR PCP:  0.04;

HULETT         LGT SNOW  27  27 100 CALM      29.97S
NEWCASTLE      CLOUDY    27  27 100 CALM      30.00S

$$
WYZ014>020-022>026-101>103-171300-
CENTRAL WYOMING

CITY           SKY/WX    TMP DP  RH WIND       PRES   REMARKS
BIG PINEY      FAIR       9   5  84 CALM      29.99S
6HR MIN TEMP:   7; 6HR MAX TEMP:  21;

PINEDALE       FAIR      10   9  92 NW5       29.98S WCI   2
DUBOIS         FAIR      14  10  85 NW13      29.93S WCI   0
LANDER         CLOUDY    22  19  89 SW7       29.97F WCI  13
6HR MIN TEMP:  22; 6HR MAX TEMP:  25; 6HR PCP:  0.01;

RIVERTON       CLOUDY    22  21  96 W6        29.98F WCI  14
6HR MIN TEMP:  22; 6HR MAX TEMP:  25; 6HR PCP:  0.01;

CASPER         CLOUDY    23  20  88 SW6       29.96S WCI  16
6HR MIN TEMP:  23; 6HR MAX TEMP:  24; 6HR PCP:  0.03;

DOUGLAS        CLOUDY    26  26 100 SE7       29.96F WCI  18
6HR MIN TEMP:  26; 6HR MAX TEMP:  29;


$$
WYZ021-027>030-104>119-171300-
SOUTHERN WYOMING

CITY           SKY/WX    TMP DP  RH WIND       PRES   REMARKS
EVANSTON       LGT SNOW  20  18  92 N7        30.06R FOG     WCI  11
6HR MIN TEMP:  20; 6HR MAX TEMP:  21; 6HR PCP: TRACE;

FORT BRIDGER   FAIR      19  19 100 W15G24    30.04S WCI   5
ROCK SPRINGS   CLOUDY    21  18  88 W17       29.98S WCI   7
6HR MIN TEMP:  21; 6HR MAX TEMP:  26; 6HR PCP: TRACE;

DIXON          CLOUDY    23  16  75 E3        30.01R
RAWLINS        CLOUDY    25  22  88 W7        29.94S WCI  17
6HR MIN TEMP:  24; 6HR MAX TEMP:  26;

SARATOGA       FLURRIES  19  19 100 SE7       29.95S WCI  10
LARAMIE        FOG       13  13 100 W5        29.90R VSB 1/4 WCI   5
6HR MIN TEMP:   8; 6HR MAX TEMP:  24;

CHEYENNE       CLOUDY    26  26 100 E3        29.94R
6HR MIN TEMP:  26; 6HR MAX TEMP:  26; 6HR PCP:  0.05;

TORRINGTON     CLOUDY    29  27  92 NE6       30.00R WCI  23
6HR MIN TEMP:  29; 6HR MAX TEMP:  30;

PINE BLUFFS    CLOUDY    28  28 100 E3        29.98R

$$



USA.gov is the U.S. government's official web portal to all federal, state and local government web resources and services.